Simultaneous Nadir Overpasses (SNOs) Predictions

Prediction of SNOs between GOES-15 and METOP-B Satellite Orbit:

Table of predicted SNOs for the next 14.0 days since TLE Epoch: 8/24/2024
Index Date Time (GOES-15) GOES-15 Lat,Lon METOP-B Lat,Lon Distance(km) Time Diff (sec)
1 08/24/2024 04:56:50 -0.11, 61.55 -1.09, 65.87 493.07 80
2 08/25/2024 17:13:11 0.15, 61.65 0.07, 61.26 44.21 80
3 08/28/2024 05:14:05 -0.16, 61.50 -0.18, 61.66 18.11 80
4 08/30/2024 17:12:27 0.17, 61.60 0.27, 62.04 49.79 80
5 09/01/2024 05:28:40 -0.21, 61.46 0.68, 57.44 457.91 80
6 09/02/2024 05:10:41 -0.19, 61.45 -0.41, 62.43 111.89 80
7 09/03/2024 17:27:01 0.22, 61.56 -0.63, 57.83 425.84 80
8 09/04/2024 17:09:01 0.20, 61.55 0.48, 62.82 143.88 80
9 09/06/2024 05:25:15 -0.23, 61.42 0.46, 58.22 363.87 80
